| time (UTC) | temp C | wind direction | speed KPH | gust KPH | rain 1hr cm | rain 24hr cm | rain mn cm | humidity % | barometer mb |
| 20260504100315 | 13 | 218 | 8.0 | 11.3 | 0.00 | 0.00 | 0.00 | 77 | 1009.2 |
| 20260504081709 | 10 | 190 | 0.0 | 3.2 | 0.00 | 0.00 | 0.00 | 77 | 1009.9 |
| 20260504081205 | 10 | 215 | 1.6 | 4.8 | 0.00 | 0.00 | 0.00 | 78 | 1010.4 |
| 20260504080701 | 10 | 78 | 0.0 | 3.2 | 0.00 | 0.00 | 0.00 | 78 | 1010.2 |
| 20260504080158 | 10 | 135 | 0.0 | 3.2 | 0.00 | 0.00 | 0.00 | 79 | 1009.9 |
| 20260504070126 | 10 | 103 | 0.0 | 3.2 | 0.00 | 0.00 | 0.00 | 79 | 1010.2 |
| 20260504050514 | 12 | 89 | 0.0 | 3.2 | 0.00 | 0.00 | 0.00 | 63 | 1011.3 |
| 20260504050012 | 13 | 198 | 3.2 | 8.0 | 0.00 | 0.00 | 0.00 | 62 | 1011.4 |
| 20260504045508 | 13 | 216 | 3.2 | 6.4 | 0.00 | 0.00 | 0.00 | 62 | 1011.2 |
| 20260504045003 | 13 | 192 | 3.2 | 11.3 | 0.00 | 0.00 | 0.00 | 61 | 1011.5 |
| 20260504044501 | 13 | 227 | 4.8 | 8.0 | 0.00 | 0.00 | 0.00 | 60 | 1011.3 |
| 20260504043958 | 13 | 221 | 0.0 | 8.0 | 0.00 | 0.00 | 0.00 | 60 | 1011.5 |
| 20260504043455 | 13 | 224 | 3.2 | 4.8 | 0.00 | 0.00 | 0.00 | 60 | 1011.6 |
| 20260504042952 | 13 | 244 | 3.2 | 9.7 | 0.00 | 0.00 | 0.00 | 59 | 1011.5 |
| 20260504042449 | 13 | 237 | 4.8 | 9.7 | 0.00 | 0.00 | 0.00 | 60 | 1011.7 |
| 20260504041945 | 13 | 228 | 3.2 | 8.0 | 0.00 | 0.00 | 0.00 | 59 | 1011.4 |
| 20260504041442 | 13 | 171 | 3.2 | 4.8 | 0.00 | 0.00 | 0.00 | 60 | 1011.8 |
| 20260504040937 | 13 | 227 | 1.6 | 4.8 | 0.00 | 0.00 | 0.00 | 59 | 1011.8 |
| 20260504040436 | 14 | 182 | 0.0 | 8.0 | 0.00 | 0.00 | 0.00 | 58 | 1011.8 |
| 20260504035931 | 14 | 208 | 3.2 | 11.3 | 0.00 | 0.00 | 0.00 | 57 | 1011.5 |
| 20260504035429 | 14 | 272 | 1.6 | 11.3 | 0.00 | 0.00 | 0.00 | 58 | 1011.7 |
| 20260504034925 | 14 | 248 | 8.0 | 11.3 | 0.00 | 0.00 | 0.00 | 58 | 1011.8 |
| 20260504034423 | 14 | 246 | 0.0 | 11.3 | 0.00 | 0.00 | 0.00 | 57 | 1011.9 |
| 20260504033920 | 14 | 242 | 8.0 | 9.7 | 0.00 | 0.00 | 0.00 | 57 | 1011.9 |
| 20260504033418 | 14 | 257 | 3.2 | 9.7 | 0.00 | 0.00 | 0.00 | 58 | 1011.9 |
| 20260504032915 | 14 | 178 | 3.2 | 6.4 | 0.00 | 0.00 | 0.00 | 58 | 1012.1 |
| 20260504032411 | 14 | 181 | 0.0 | 9.7 | 0.00 | 0.00 | 0.00 | 59 | 1012.2 |
| 20260504031908 | 14 | 285 | 3.2 | 16.1 | 0.00 | 0.00 | 0.00 | 58 | 1011.9 |
| 20260504031405 | 14 | 223 | 4.8 | 9.7 | 0.00 | 0.00 | 0.00 | 59 | 1012.0 |
| 20260504030902 | 14 | 262 | 4.8 | 8.0 | 0.00 | 0.00 | 0.00 | 59 | 1012.1 |
| 20260504030359 | 14 | 269 | 3.2 | 11.3 | 0.00 | 0.00 | 0.00 | 59 | 1012.2 |
| 20260504025855 | 14 | 222 | 8.0 | 9.7 | 0.00 | 0.00 | 0.00 | 59 | 1012.3 |
| 20260504025352 | 14 | 180 | 3.2 | 12.9 | 0.00 | 0.00 | 0.00 | 59 | 1012.3 |
| 20260504024849 | 14 | 219 | 11.3 | 12.9 | 0.00 | 0.00 | 0.00 | 58 | 1012.4 |
| 20260504024345 | 14 | 220 | 3.2 | 9.7 | 0.00 | 0.00 | 0.00 | 59 | 1012.1 |
| 20260504023842 | 14 | 205 | 1.6 | 6.4 | 0.00 | 0.00 | 0.00 | 58 | 1012.2 |
| 20260504023339 | 14 | 168 | 3.2 | 11.3 | 0.00 | 0.00 | 0.00 | 58 | 1012.1 |
| 20260504022834 | 14 | 242 | 4.8 | 8.0 | 0.00 | 0.00 | 0.00 | 58 | 1012.1 |
| 20260504022332 | 14 | 259 | 1.6 | 4.8 | 0.00 | 0.00 | 0.00 | 58 | 1012.1 |
| 20260504021828 | 14 | 225 | 3.2 | 4.8 | 0.00 | 0.00 | 0.00 | 58 | 1012.1 |
| 20260504021326 | 14 | 235 | 4.8 | 8.0 | 0.00 | 0.00 | 0.00 | 58 | 1012.0 |
| 20260504020822 | 14 | 215 | 4.8 | 9.7 | 0.00 | 0.00 | 0.00 | 57 | 1012.1 |
| 20260504020319 | 15 | 236 | 4.8 | 11.3 | 0.00 | 0.00 | 0.00 | 56 | 1012.1 |
| 20260504015815 | 15 | 248 | 0.0 | 6.4 | 0.00 | 0.00 | 0.00 | 56 | 1012.2 |
| 20260504015311 | 15 | 175 | 3.2 | 11.3 | 0.00 | 0.00 | 0.00 | 56 | 1012.0 |
| 20260504014808 | 15 | 238 | 6.4 | 12.9 | 0.00 | 0.00 | 0.00 | 55 | 1012.1 |
| 20260504014303 | 15 | 205 | 6.4 | 11.3 | 0.00 | 0.00 | 0.00 | 55 | 1012.1 |
| 20260504013802 | 15 | 192 | 4.8 | 8.0 | 0.00 | 0.00 | 0.00 | 55 | 1012.2 |
| 20260504013259 | 15 | 198 | 1.6 | 4.8 | 0.00 | 0.00 | 0.00 | 55 | 1012.1 |
| 20260504012755 | 15 | 245 | 4.8 | 6.4 | 0.00 | 0.00 | 0.00 | 56 | 1012.2 |
| 20260504012254 | 15 | 209 | 8.0 | 14.5 | 0.00 | 0.00 | 0.00 | 55 | 1012.1 |
| 20260504011750 | 15 | 207 | 3.2 | 6.4 | 0.00 | 0.00 | 0.00 | 55 | 1012.0 |
| 20260504011247 | 15 | 36 | 1.6 | 4.8 | 0.00 | 0.00 | 0.00 | 56 | 1012.1 |
| 20260504010743 | 15 | 195 | 4.8 | 4.8 | 0.00 | 0.00 | 0.00 | 56 | 1012.0 |
| 20260504010238 | 15 | 257 | 1.6 | 6.4 | 0.00 | 0.00 | 0.00 | 56 | 1012.0 |
| 20260504005735 | 15 | 182 | 3.2 | 12.9 | 0.00 | 0.00 | 0.00 | 55 | 1011.7 |
| 20260504005233 | 15 | 243 | 6.4 | 17.7 | 0.00 | 0.00 | 0.00 | 55 | 1011.7 |
| 20260504004730 | 15 | 215 | 14.5 | 19.3 | 0.00 | 0.00 | 0.00 | 55 | 1011.8 |
| 20260504004227 | 15 | 217 | 8.0 | 17.7 | 0.00 | 0.00 | 0.00 | 56 | 1011.6 |
| 20260504003723 | 15 | 246 | 6.4 | 24.1 | 0.00 | 0.00 | 0.00 | 56 | 1011.8 |
| 20260504003221 | 15 | 220 | 8.0 | 17.7 | 0.00 | 0.00 | 0.00 | 54 | 1011.7 |
| 20260504002717 | 16 | 234 | 11.3 | 14.5 | 0.00 | 0.00 | 0.00 | 53 | 1012.2 |
| 20260504002214 | 16 | 223 | 9.7 | 11.3 | 0.00 | 0.00 | 0.00 | 51 | 1012.6 |
| 20260504001712 | 16 | 229 | 4.8 | 8.0 | 0.00 | 0.00 | 0.00 | 51 | 1012.8 |
| 20260504001209 | 16 | 235 | 4.8 | 16.1 | 0.00 | 0.00 | 0.00 | 51 | 1012.9 |
| 20260504000706 | 16 | 245 | 4.8 | 11.3 | 0.00 | 0.00 | 0.00 | 51 | 1012.8 |
| 20260504000204 | 16 | 196 | 6.4 | 14.5 | 0.00 | 0.00 | 0.00 | 49 | 1012.6 |
| 20260503235701 | 16 | 244 | 4.8 | 14.5 | 0.00 | 0.00 | 0.00 | 49 | 1012.7 |
| 20260503235157 | 16 | 219 | 3.2 | 8.0 | 0.00 | 0.00 | 0.00 | 50 | 1012.8 |
| 20260503234655 | 16 | 219 | 16.1 | 17.7 | 0.00 | 0.00 | 0.00 | 49 | 1012.7 |
| 20260503234154 | 16 | 240 | 4.8 | 9.7 | 0.00 | 0.00 | 0.00 | 49 | 1013.3 |
| 20260503233650 | 16 | 215 | 6.4 | 8.0 | 0.00 | 0.00 | 0.00 | 50 | 1013.2 |
| 20260503233146 | 16 | 228 | 3.2 | 4.8 | 0.00 | 0.00 | 0.00 | 50 | 1013.2 |
| 20260503232643 | 16 | 242 | 3.2 | 4.8 | 0.00 | 0.00 | 0.00 | 50 | 1013.2 |
| 20260503232140 | 16 | 243 | 4.8 | 12.9 | 0.00 | 0.00 | 0.00 | 49 | 1012.9 |
| 20260503231638 | 16 | 289 | 3.2 | 12.9 | 0.00 | 0.00 | 0.00 | 49 | 1012.8 |
| 20260503231134 | 16 | 253 | 3.2 | 4.8 | 0.00 | 0.00 | 0.00 | 49 | 1012.5 |
| 20260503230631 | 16 | 271 | 3.2 | 11.3 | 0.00 | 0.00 | 0.00 | 49 | 1012.7 |
| 20260503230128 | 16 | 195 | 6.4 | 11.3 | 0.00 | 0.00 | 0.00 | 48 | 1012.6 |
| 20260503225626 | 16 | 208 | 3.2 | 25.7 | 0.00 | 0.00 | 0.00 | 48 | 1012.7 |
| 20260503225125 | 16 | 230 | 6.4 | 16.1 | 0.00 | 0.00 | 0.00 | 49 | 1012.7 |
| 20260503224623 | 16 | 197 | 1.6 | 16.1 | 0.00 | 0.00 | 0.00 | 49 | 1012.9 |
| 20260503224121 | 16 | 198 | 11.3 | 17.7 | 0.00 | 0.00 | 0.00 | 48 | 1012.9 |
| 20260503223619 | 16 | 205 | 8.0 | 20.9 | 0.00 | 0.00 | 0.00 | 49 | 1013.0 |
| 20260503223114 | 16 | 296 | 3.2 | 8.0 | 0.00 | 0.00 | 0.00 | 49 | 1013.0 |
| 20260503222612 | 16 | 276 | 3.2 | 9.7 | 0.00 | 0.00 | 0.00 | 48 | 1013.1 |
| 20260503222110 | 16 | 254 | 9.7 | 16.1 | 0.00 | 0.00 | 0.00 | 49 | 1012.9 |
| 20260503221608 | 16 | 248 | 6.4 | 22.5 | 0.00 | 0.00 | 0.00 | 48 | 1013.0 |
| 20260503221105 | 16 | 73 | 3.2 | 22.5 | 0.00 | 0.00 | 0.00 | 48 | 1013.1 |
| 20260503220601 | 16 | 210 | 12.9 | 25.7 | 0.00 | 0.00 | 0.00 | 48 | 1012.8 |
| 20260503220058 | 16 | 227 | 9.7 | 20.9 | 0.00 | 0.00 | 0.00 | 48 | 1012.9 |
| 20260503215555 | 16 | 236 | 6.4 | 22.5 | 0.00 | 0.00 | 0.00 | 47 | 1013.2 |
| 20260503215052 | 16 | 219 | 14.5 | 29.0 | 0.00 | 0.00 | 0.00 | 47 | 1013.2 |
| 20260503214550 | 16 | 240 | 4.8 | 20.9 | 0.00 | 0.00 | 0.00 | 48 | 1013.2 |
| 20260503214046 | 16 | 212 | 20.9 | 24.1 | 0.00 | 0.00 | 0.00 | 47 | 1012.9 |
| 20260503213545 | 16 | 284 | 8.0 | 27.4 | 0.00 | 0.00 | 0.00 | 48 | 1013.2 |
| 20260503213041 | 16 | 247 | 8.0 | 35.4 | 0.00 | 0.00 | 0.00 | 48 | 1013.5 |
| 20260503212539 | 16 | 244 | 12.9 | 41.8 | 0.00 | 0.00 | 0.00 | 48 | 1013.5 |
| 20260503212036 | 16 | 230 | 14.5 | 19.3 | 0.00 | 0.00 | 0.00 | 48 | 1013.8 |
| 20260503211533 | 16 | 245 | 3.2 | 14.5 | 0.00 | 0.00 | 0.00 | 48 | 1013.8 |
| 20260503211028 | 16 | 229 | 9.7 | 12.9 | 0.00 | 0.00 | 0.00 | 47 | 1013.6 |
| 20260503210526 | 16 | 247 | 8.0 | 19.3 | 0.00 | 0.00 | 0.00 | 47 | 1013.8 |
| 20260503210021 | 16 | 237 | 8.0 | 20.9 | 0.00 | 0.00 | 0.00 | 48 | 1014.3 |
| 20260503205518 | 16 | 259 | 4.8 | 9.7 | 0.00 | 0.00 | 0.00 | 48 | 1014.1 |
| 20260503205014 | 16 | 236 | 6.4 | 11.3 | 0.00 | 0.00 | 0.00 | 47 | 1014.5 |
| 20260503204512 | 16 | 250 | 6.4 | 16.1 | 0.00 | 0.00 | 0.00 | 47 | 1014.9 |
| 20260503204008 | 16 | 290 | 12.9 | 29.0 | 0.00 | 0.00 | 0.00 | 46 | 1015.2 |
| 20260503203506 | 16 | 244 | 6.4 | 11.3 | 0.00 | 0.00 | 0.00 | 48 | 1015.4 |
| 20260503203003 | 16 | 186 | 8.0 | 14.5 | 0.00 | 0.00 | 0.00 | 46 | 1015.4 |
| 20260503202500 | 16 | 277 | 8.0 | 19.3 | 0.00 | 0.00 | 0.00 | 45 | 1015.8 |
| 20260503201959 | 16 | 281 | 12.9 | 24.1 | 0.00 | 0.00 | 0.00 | 44 | 1015.7 |
| 20260503201456 | 16 | 246 | 8.0 | 14.5 | 0.00 | 0.00 | 0.00 | 45 | 1015.5 |
| 20260503200953 | 16 | 236 | 25.7 | 30.6 | 0.00 | 0.00 | 0.00 | 45 | 1015.5 |
| 20260503200449 | 16 | 269 | 6.4 | 35.4 | 0.00 | 0.00 | 0.00 | 44 | 1015.4 |
| 20260503195946 | 16 | 272 | 8.0 | 29.0 | 0.00 | 0.00 | 0.00 | 45 | 1015.4 |
| 20260503195444 | 17 | 215 | 12.9 | 25.7 | 0.00 | 0.00 | 0.00 | 45 | 1015.4 |
| 20260503194940 | 16 | 240 | 9.7 | 24.1 | 0.00 | 0.00 | 0.00 | 46 | 1015.6 |
| 20260503194437 | 16 | 236 | 6.4 | 12.9 | 0.00 | 0.00 | 0.00 | 46 | 1015.6 |
| 20260503193932 | 16 | 253 | 4.8 | 25.7 | 0.00 | 0.00 | 0.00 | 45 | 1015.5 |
| 20260503193428 | 16 | 242 | 3.2 | 20.9 | 0.00 | 0.00 | 0.00 | 44 | 1015.8 |
| 20260503192923 | 16 | 241 | 12.9 | 33.8 | 0.00 | 0.00 | 0.00 | 46 | 1015.8 |
| 20260503192421 | 16 | 237 | 11.3 | 20.9 | 0.00 | 0.00 | 0.00 | 45 | 1015.8 |
| 20260503191916 | 16 | 265 | 4.8 | 17.7 | 0.00 | 0.00 | 0.00 | 45 | 1016.1 |
| 20260503191414 | 16 | 77 | 0.0 | 17.7 | 0.00 | 0.00 | 0.00 | 46 | 1015.5 |
| 20260503190910 | 16 | 251 | 6.4 | 25.7 | 0.00 | 0.00 | 0.00 | 46 | 1016.2 |
| 20260503190408 | 16 | 239 | 9.7 | 20.9 | 0.00 | 0.00 | 0.00 | 47 | 1016.3 |
| 20260503185904 | 16 | 244 | 12.9 | 20.9 | 0.00 | 0.00 | 0.00 | 46 | 1016.2 |
| 20260503185401 | 16 | 234 | 19.3 | 20.9 | 0.00 | 0.00 | 0.00 | 45 | 1016.3 |
| 20260503184900 | 16 | 239 | 8.0 | 24.1 | 0.00 | 0.00 | 0.00 | 46 | 1016.5 |
| 20260503184356 | 16 | 221 | 12.9 | 22.5 | 0.00 | 0.00 | 0.00 | 46 | 1016.4 |
| 20260503183853 | 16 | 214 | 6.4 | 22.5 | 0.00 | 0.00 | 0.00 | 46 | 1016.3 |
| 20260503183350 | 16 | 253 | 8.0 | 25.7 | 0.00 | 0.00 | 0.00 | 48 | 1016.7 |
| 20260503182847 | 15 | 206 | 6.4 | 25.7 | 0.00 | 0.00 | 0.00 | 47 | 1016.9 |
| 20260503182346 | 15 | 213 | 17.7 | 33.8 | 0.00 | 0.00 | 0.00 | 46 | 1017.1 |
| 20260503181842 | 15 | 230 | 17.7 | 29.0 | 0.00 | 0.00 | 0.00 | 46 | 1017.3 |
| 20260503181340 | 16 | 197 | 11.3 | 17.7 | 0.00 | 0.00 | 0.00 | 45 | 1017.3 |
| 20260503180836 | 15 | 292 | 12.9 | 27.4 | 0.00 | 0.00 | 0.00 | 45 | 1017.2 |
| 20260503180334 | 16 | 221 | 11.3 | 20.9 | 0.00 | 0.00 | 0.00 | 45 | 1017.1 |
| 20260503175830 | 15 | 288 | 4.8 | 27.4 | 0.00 | 0.00 | 0.00 | 46 | 1017.9 |
| 20260503175328 | 15 | 228 | 9.7 | 19.3 | 0.00 | 0.00 | 0.00 | 45 | 1017.7 |
| 20260503174823 | 16 | 250 | 6.4 | 19.3 | 0.00 | 0.00 | 0.00 | 45 | 1017.7 |
| 20260503174322 | 15 | 225 | 3.2 | 29.0 | 0.00 | 0.00 | 0.00 | 45 | 1017.9 |
| 20260503173817 | 15 | 263 | 8.0 | 24.1 | 0.00 | 0.00 | 0.00 | 46 | 1018.2 |
| 20260503173314 | 16 | 205 | 9.7 | 17.7 | 0.00 | 0.00 | 0.00 | 45 | 1018.3 |
| 20260503172810 | 15 | 288 | 12.9 | 27.4 | 0.00 | 0.00 | 0.00 | 45 | 1018.3 |
| 20260503172308 | 15 | 242 | 19.3 | 24.1 | 0.00 | 0.00 | 0.00 | 44 | 1018.5 |
| 20260503171804 | 15 | 223 | 8.0 | 27.4 | 0.00 | 0.00 | 0.00 | 45 | 1018.5 |
| 20260503171301 | 15 | 279 | 8.0 | 24.1 | 0.00 | 0.00 | 0.00 | 44 | 1018.3 |
| 20260503170758 | 15 | 229 | 6.4 | 38.6 | 0.00 | 0.00 | 0.00 | 46 | 1018.5 |
| 20260503170255 | 15 | 238 | 6.4 | 22.5 | 0.00 | 0.00 | 0.00 | 47 | 1018.3 |
| 20260503160217 | 13 | 232 | 8.0 | 20.9 | 0.00 | 0.00 | 0.00 | 46 | 1019.0 |
| 20260503150647 | 12 | 157 | 1.6 | 22.5 | 0.00 | 0.00 | 0.00 | 48 | 1019.8 |
| 20260503150143 | 13 | 227 | 4.8 | 19.3 | 0.00 | 0.00 | 0.00 | 47 | 1019.6 |
| 20260503140108 | 11 | 229 | 14.5 | 19.3 | 0.00 | 0.00 | 0.00 | 50 | 1020.1 |
| 20260503131037 | 9 | 210 | 8.0 | 14.5 | 0.00 | 0.00 | 0.00 | 55 | 1020.1 |
| 20260503130534 | 9 | 246 | 4.8 | 14.5 | 0.00 | 0.00 | 0.00 | 57 | 1020.1 |
| 20260503110425 | 0 | 72 | 3.2 | 4.8 | 0.00 | 0.00 | 0.00 | 97 | 1019.6 |